Lid_Strength_Index
2 3 2 4 9 9 11 9 6 7 6 5 5 5 6 5 7 10 1 1 0 1 -0 -0 -0 -1 -1 -1 -1 -1 -1 -1 -1 -1 -1 -1 -1 -1 -1 -1 -1 -1 -1 -1 -1 -2 -2 -2 -1
3 3 4 6 10 12 11 8 7 6 6 5 5 5 5 5 3 3 2 0 0 0 -0 -0 -0 -0 -1 -1 -1 -1 -1 -1 -1 -1 -1 -1 -1 -1 -1 -1 -1 -1 -2 -1 -2 -2 -2 -2 -1
2 3 6 8 10 11 10 7 7 5 5 5 5 4 4 6 3 3 1 0 0 0 -0 -0 -0 -0 -1 -1 -1 -1 -1 -1 -1 -1 -1 -1 -1 -1 -1 -1 -1 -2 -2 -2 -2 -2 -2 -2 -1
2 3 5 9 10 9 8 6 5 5 5 5 4 5 4 2 3 1 0 0 0 0 -0 -0 -0 -0 -1 -1 -1 -1 -1 -1 -1 -1 -1 -1 -1 -1 -1 -1 -1 -2 -2 -2 -2 -2 -2 -2 -1
3 4 8 10 9 8 6 5 5 6 5 5 5 5 5 2 1 1 1 0 1 0 -0 -0 -0 -0 -1 -1 -1 -1 -1 -1 -1 -1 -1 -1 -1 -1 -1 -1 -1 -2 -2 -2 -2 -2 -2 -1 -1
5 4 9 10 9 7 6 5 4 5 5 5 6 6 4 2 2 1 0 1 0 0 0 -0 -1 -0 -0 -1 -1 -1 -1 -1 -1 -1 -1 -1 -1 -1 -1 -1 -1 -2 -2 -2 -2 -2 -2 -2 -2
5 7 9 8 8 8 7 5 6 5 5 5 5 7 5 3 1 1 1 0 0 0 0 -0 -0 -1 -1 -0 -0 -0 -1 -1 -1 -1 -1 -1 -1 -1 -1 -1 -1 -2 -2 -2 -2 -2 -3 -3 -3
4 6 8 8 9 9 6 5 4 5 5 3 4 7 6 4 2 1 1 1 1 0 0 0 -0 -0 -0 -0 -1 -0 -1 -0 -1 -1 -1 -1 -1 -1 -1 -1 -1 -1 -2 -2 -2 -3 -3 -3 -3
3 7 9 8 8 7 6 6 4 3 5 5 4 5 4 3 3 1 2 1 1 1 1 0 0 -0 -0 -0 -1 -1 -1 -1 -1 -1 -1 -1 -1 -1 -1 -1 -2 -1 -2 -2 -2 -3 -3 -3 -3
5 7 8 6 6 6 5 6 5 6 6 6 6 4 4 4 4 3 3 3 2 2 1 0 0 0 -0 -0 -0 -1 -1 -1 -1 -1 -1 -1 -1 -1 -1 -1 -2 -2 -2 -2 -2 -3 -3 -2 -1
5 7 6 5 5 4 5 5 5 6 7 6 6 5 5 4 4 4 4 2 2 1 1 1 0 0 0 0 -0 -0 -0 -0 -0 -1 -1 -1 -1 -1 -1 -0 -1 -1 -1 -1 -1 -1 -1 -1 -1
6 5 5 5 4 5 5 4 6 5 5 3 5 5 5 6 5 6 5 5 1 2 1 1 0 0 0 -0 0 0 0 -0 -0 -0 -1 -0 0 -0 -0 -0 -0 -0 -1 -0 -1 -0 -1 -1 -1
6 5 5 4 5 5 4 5 5 6 4 3 4 4 6 6 6 5 4 4 3 1 2 1 0 1 0 0 0 0 0 0 -0 -0 -0 -0 -0 0 -0 -0 -0 -0 -1 -0 -0 -0 -0 0 -0
5 5 5 5 5 5 5 5 5 5 4 4 4 4 4 4 5 4 4 3 1 1 1 1 0 0 0 0 -0 0 0 -0 -0 -0 -0 -1 -0 0 0 0 0 -0 -1 -0 -0 0 0 0 -0
5 6 6 5 5 6 5 7 7 5 4 4 4 4 3 3 3 3 3 2 1 1 0 1 1 0 1 1 0 0 0 0 0 0 -1 -0 -0 -0 0 0 0 -0 -1 -1 -0 -0 0 0 0
6 6 9 6 5 5 6 9 5 4 4 5 5 4 3 3 2 2 1 1 -1 0 1 -0 1 1 1 1 0 0 0 0 0 -0 -0 -0 -0 -0 0 0 0 -0 -0 -0 0 0 1 1 1
7 10 9 8 5 6 7 8 6 4 5 5 5 4 4 3 2 2 1 1 -2 -0 0 1 1 1 1 1 0 0 0 0 0 -0 -0 -0 -0 -0 0 0 0 -0 0 0 0 1 1 1 1
10 10 9 9 7 6 7 8 6 5 5 5 5 5 4 4 3 2 1 1 0 0 -1 0 1 0 1 1 1 1 1 0 0 0 0 -0 -0 -0 0 0 0 0 0 1 1 1 1 1 1
8 9 9 8 6 7 8 7 6 5 5 5 5 4 4 4 3 2 2 1 0 -0 -0 0 1 1 1 1 2 2 2 1 1 0 0 0 -0 -0 0 0 0 0 1 1 1 1 1 2 1
8 9 9 7 6 7 7 8 6 5 5 5 5 4 4 3 3 3 2 2 1 1 1 1 1 1 1 1 1 1 1 1 1 0 0 -0 0 0 0 0 1 0 1 1 1 1 2 2 1
8 9 9 9 7 7 7 9 7 6 5 5 4 4 3 3 3 2 2 2 2 2 2 1 1 1 1 1 1 1 1 1 1 1 1 1 0 0 0 0 0 1 1 1 1 1 2 3 2
9 7 7 8 9 11 7 13 9 7 6 5 5 4 4 3 3 3 2 2 2 2 1 1 1 1 1 1 1 2 3 3 2 2 1 1 0 0 0 0 0 1 1 1 1 1 1 2 3
8 6 7 8 9 10 10 11 9 7 8 6 5 5 4 4 3 3 3 2 2 1 1 0 0 0 1 1 1 2 2 2 2 1 1 1 1 0 0 0 0 1 1 1 1 1 1 1 2
6 7 8 8 9 14 10 11 11 9 8 7 6 5 5 4 3 3 2 2 2 1 1 1 1 1 1 1 1 2 2 2 2 2 2 2 1 1 1 0 1 0 1 1 1 1 1 1 1
7 9 14 15 15 16 9 12 10 8 7 7 6 6 5 4 3 3 3 3 2 2 2 1 1 2 1 1 1 1 2 2 2 2 2 2 2 2 1 1 1 1 1 1 1 1 1 1 2
8 9 14 19 17 14 10 13 10 7 6 5 5 4 4 4 3 3 3 2 2 2 2 1 2 2 1 1 1 1 1 1 2 2 2 2 2 2 1 1 1 1 1 1 1 1 1 1 1
9 11 8 12 11 14 12 10 7 6 6 6 6 5 4 4 4 3 2 2 2 2 2 2 2 1 1 1 1 1 1 1 2 1 1 1 1 1 1 1 1 1 1 1 1 1 1 1 1
8 7 12 11 18 18 13 12 11 9 8 6 6 5 4 4 3 3 3 2 2 1 1 1 1 2 1 1 1 1 1 1 1 1 2 1 1 1 1 1 1 1 1 1 1 1 1 1 1
9 10 10 10 12 17 17 13 7 7 7 6 6 5 4 4 4 3 3 2 2 2 1 1 1 1 2 1 1 1 1 1 1 1 1 1 1 1 1 1 1 1 1 1 1 1 1 2 1
8 9 9 15 15 13 14 14 6 6 6 5 5 5 4 4 4 4 4 3 2 2 2 2 2 2 1 1 1 1 1 1 2 2 1 1 1 1 1 4 3 1 2 2 2 2 1 2 2